EI4HQ Weather Reports


Display with metric or nautical units.
time (UTC)temp
F
wind
direction
speed
MPH
gust
MPH
rain 1hr
in
rain 24hr
in
rain mn
in
humidity
%
barometer
mb
20220707162610 76 351 7.0 14.0 0.00 0.02 0.02 68 1032.5
20220707161710 76 348 5.0 13.0 0.00 0.02 0.02 68 1032.5
20220707160810 75 353 6.0 12.0 0.00 0.02 0.02 66 1032.5
20220707155910 75 351 7.0 13.0 0.00 0.02 0.02 67 1032.6
20220707155010 75 359 4.0 11.0 0.00 0.02 0.02 67 1032.6
20220707154109 75 358 3.0 12.0 0.00 0.02 0.02 68 1032.6
20220707153210 75 356 8.0 15.0 0.00 0.02 0.02 67 1032.5
20220707152309 76 350 6.0 14.0 0.00 0.02 0.02 68 1032.6
20220707151410 75 354 4.0 12.0 0.00 0.02 0.02 70 1032.6
20220707150509 74 351 8.0 15.0 0.00 0.02 0.02 69 1032.6
20220707145610 75 353 6.0 15.0 0.00 0.03 0.02 69 1032.6
20220707144710 75 358 4.0 10.0 0.00 0.03 0.02 70 1032.6
20220707143810 75 357 6.0 13.0 0.00 0.03 0.02 69 1032.7
20220707142909 75 354 7.0 15.0 0.00 0.03 0.02 72 1032.6
20220707142010 75 347 4.0 12.0 0.00 0.03 0.02 73 1032.7
20220707141109 74 350 6.0 14.0 0.00 0.03 0.02 73 1032.7
20220707140210 74 351 9.0 14.0 0.00 0.03 0.02 72 1032.7
20220707135310 74 349 9.0 16.0 0.00 0.03 0.02 73 1032.7
20220707134410 74 1 8.0 14.0 0.00 0.03 0.02 73 1032.8
20220707133509 74 359 6.0 14.0 0.00 0.03 0.02 76 1032.7
20220707132610 72 353 7.0 15.0 0.00 0.03 0.02 77 1032.8
20220707131710 72 353 8.0 14.0 0.00 0.03 0.02 75 1032.7
20220707130810 72 352 5.0 14.0 0.00 0.03 0.02 75 1032.6
20220707125909 72 355 8.0 16.0 0.00 0.03 0.02 76 1032.6
20220707125010 73 357 8.0 15.0 0.00 0.03 0.02 76 1032.7
20220707124109 73 1 6.0 14.0 0.00 0.03 0.02 76 1032.6
20220707123210 72 357 6.0 13.0 0.00 0.03 0.02 77 1032.7
20220707122310 73 1 5.0 15.0 0.00 0.03 0.02 76 1032.8
20220707121410 73 358 8.0 15.0 0.00 0.03 0.02 76 1032.8
20220707120509 73 357 7.0 15.0 0.00 0.03 0.02 77 1032.7
20220707115610 73 350 8.0 17.0 0.00 0.03 0.02 78 1032.7
20220707114709 72 353 10.0 18.0 0.00 0.03 0.02 77 1032.7
20220707113810 72 351 9.0 18.0 0.00 0.03 0.02 78 1032.6
20220707112909 72 354 10.0 19.0 0.00 0.03 0.02 78 1032.6
20220707112010 72 359 6.0 15.0 0.00 0.03 0.02 79 1032.6
20220707111109 72 352 7.0 15.0 0.00 0.03 0.02 78 1032.6
20220707110210 72 353 5.0 16.0 0.00 0.03 0.02 77 1032.5
20220707105309 71 347 7.0 18.0 0.00 0.03 0.02 78 1032.5
20220707104410 71 349 5.0 12.0 0.00 0.03 0.02 79 1032.4
20220707103509 71 347 6.0 16.0 0.01 0.03 0.02 79 1032.5
20220707102609 71 347 8.0 17.0 0.01 0.03 0.02 79 1032.3
20220707101709 71 350 5.0 16.0 0.01 0.03 0.02 80 1032.2
20220707100809 71 351 9.0 16.0 0.01 0.03 0.02 78 1032.2
20220707095909 71 345 4.0 13.0 0.01 0.03 0.02 80 1032.2
20220707095009 70 343 5.0 13.0 0.01 0.03 0.02 81 1032.2
20220707094109 70 349 6.0 14.0 0.00 0.02 0.02 82 1032.2
20220707093209 69 351 7.0 15.0 0.00 0.02 0.02 83 1032.1
20220707092309 69 351 8.0 14.0 0.00 0.02 0.02 86 1032.0
20220707091409 68 345 6.0 16.0 0.00 0.02 0.02 89 1032.1
20220707090509 66 344 3.0 9.0 0.00 0.02 0.02 91 1032.0
20220707085609 64 349 4.0 10.0 0.00 0.02 0.02 90 1032.1
20220707084709 64 347 3.0 8.0 0.00 0.02 0.02 90 1032.0
20220707083809 63 350 4.0 8.0 0.00 0.02 0.02 91 1031.9
20220707082909 63 350 3.0 13.0 0.00 0.02 0.02 91 1031.8
20220707082010 63 348 3.0 11.0 0.00 0.02 0.02 92 1031.7
20220707081109 62 348 5.0 13.0 0.00 0.02 0.02 92 1031.7
20220707080210 62 349 6.0 16.0 0.00 0.02 0.02 92 1031.7
20220707075309 61 348 9.0 15.0 0.00 0.02 0.02 92 1031.6
20220707074409 61 349 6.0 17.0 0.00 0.02 0.02 93 1031.4
20220707073509 61 347 5.0 14.0 0.00 0.02 0.02 93 1031.3
20220707072609 61 348 7.0 19.0 0.00 0.02 0.02 94 1031.2
20220707071709 60 347 6.0 19.0 0.00 0.02 0.02 94 1031.2
20220707070809 60 344 6.0 19.0 0.00 0.02 0.02 94 1031.3
20220707065909 60 345 2.0 13.0 0.00 0.02 0.02 94 1031.3
20220707065009 60 346 4.0 14.0 0.00 0.02 0.02 94 1031.3
20220707064109 60 345 4.0 14.0 0.00 0.02 0.02 95 1031.1
20220707063209 60 352 2.0 11.0 0.00 0.02 0.02 95 1031.2
20220707062309 59 347 3.0 15.0 0.00 0.02 0.02 95 1030.9
20220707061409 59 340 1.0 11.0 0.00 0.02 0.02 95 1030.8
20220707060509 59 348 1.0 9.0 0.00 0.02 0.02 95 1030.8
20220707055609 59 348 1.0 9.0 0.00 0.02 0.02 95 1030.7
20220707054710 59 350 2.0 9.0 0.00 0.02 0.02 95 1030.7
20220707053809 59 345 3.0 13.0 0.00 0.02 0.02 95 1030.6
20220707052909 58 346 6.0 14.0 0.00 0.02 0.02 95 1030.5
20220707052009 58 348 3.0 13.0 0.00 0.02 0.02 95 1030.4
20220707051109 58 348 4.0 14.0 0.00 0.02 0.02 95 1030.2
20220707050209 58 348 3.0 14.0 0.00 0.02 0.02 95 1030.1
20220707045309 58 351 2.0 10.0 0.00 0.02 0.02 95 1030.2
20220707044409 58 345 3.0 10.0 0.00 0.02 0.02 94 1030.1
20220707043509 58 350 1.0 11.0 0.01 0.02 0.02 94 1030.2
20220707042609 58 350 3.0 10.0 0.01 0.02 0.02 94 1030.2
20220707041708 58 358 1.0 12.0 0.01 0.02 0.02 94 1030.2
20220707040809 58 348 2.0 8.0 0.01 0.02 0.02 94 1030.0
20220707035909 58 345 0.0 1.0 0.01 0.02 0.02 94 1030.0
20220707035009 58 348 4.0 13.0 0.01 0.02 0.02 94 1029.8
20220707034109 58 346 4.0 13.0 0.00 0.02 0.01 94 1029.9
20220707033209 58 347 3.0 12.0 0.00 0.02 0.01 94 1029.9
20220707032309 58 342 5.0 12.0 0.00 0.02 0.01 94 1029.8
20220707031409 58 338 4.0 13.0 0.00 0.02 0.01 94 1029.7
20220707030508 58 344 1.0 9.0 0.00 0.02 0.01 93 1029.8
20220707025609 58 340 1.0 11.0 0.00 0.02 0.01 94 1030.1
20220707024708 58 342 2.0 12.0 0.00 0.02 0.01 93 1030.2
20220707023809 59 327 1.0 8.0 0.00 0.02 0.01 93 1030.1
20220707022908 59 333 1.0 9.0 0.00 0.02 0.01 93 1030.1
20220707022009 59 332 1.0 8.0 0.00 0.02 0.01 93 1030.2
20220707021109 59 333 2.0 12.0 0.00 0.02 0.01 93 1030.2
20220707020209 59 338 4.0 13.0 0.00 0.02 0.01 93 1030.1
20220707015309 59 345 7.0 19.0 0.00 0.02 0.01 93 1029.9
20220707014409 59 345 8.0 16.0 0.00 0.02 0.01 93 1029.9
20220707013508 59 346 3.0 11.0 0.00 0.02 0.01 93 1030.1
20220707012609 59 327 1.0 10.0 0.00 0.02 0.01 92 1030.2
20220707011708 59 331 3.0 12.0 0.00 0.02 0.01 92 1030.1
20220707010809 59 335 3.0 10.0 0.00 0.02 0.01 92 1030.1
20220707005908 59 339 3.0 12.0 0.00 0.02 0.01 92 1030.0
20220707005009 59 338 3.0 12.0 0.01 0.02 0.01 92 1030.1
20220707004109 59 342 4.0 12.0 0.01 0.02 0.01 92 1030.0
20220707003209 59 349 3.0 10.0 0.01 0.02 0.01 92 1030.0
20220707002308 59 346 5.0 12.0 0.01 0.02 0.01 92 1030.0
20220707001409 59 342 5.0 13.0 0.01 0.02 0.01 92 1029.9
20220707000508 59 335 4.0 18.0 0.01 0.02 0.01 92 1029.8
20220706235609 59 339 5.0 18.0 0.00 0.02 0.00 91 1029.7
20220706234708 59 341 3.0 14.0 0.00 0.02 0.00 91 1029.9
20220706233809 59 329 1.0 8.0 0.00 0.02 0.00 91 1030.0
20220706232909 59 305 1.0 5.0 0.00 0.02 0.00 91 1030.0
20220706232009 59 307 1.0 6.0 0.00 0.02 0.00 91 1029.9
20220706231109 60 335 1.0 4.0 0.00 0.02 0.00 91 1029.7
20220706230209 60 304 2.0 9.0 0.00 0.02 0.00 91 1029.8
20220706225309 60 277 1.0 8.0 0.00 0.02 0.02 91 1029.9
20220706224409 60 282 1.0 8.0 0.00 0.02 0.02 90 1030.0
20220706223509 60 283 1.0 9.0 0.00 0.02 0.02 90 1029.9
20220706222609 60 282 2.0 10.0 0.00 0.02 0.02 90 1029.9
20220706221708 60 283 1.0 6.0 0.00 0.02 0.02 90 1030.0
20220706220809 60 288 2.0 7.0 0.00 0.02 0.02 90 1030.1
20220706215908 60 333 2.0 11.0 0.00 0.02 0.02 89 1030.0
20220706215009 60 293 1.0 8.0 0.00 0.02 0.02 89 1029.9
20220706214108 60 314 1.0 7.0 0.00 0.02 0.02 89 1029.9
20220706213209 61 339 1.0 13.0 0.00 0.02 0.02 89 1030.1
20220706212308 61 311 0.0 6.0 0.00 0.02 0.02 89 1030.0
20220706211408 61 339 2.0 11.0 0.00 0.02 0.02 88 1030.1
20220706210508 61 324 1.0 9.0 0.00 0.02 0.02 88 1030.2
20220706205609 61 324 3.0 12.0 0.00 0.02 0.02 88 1030.0
20220706204708 61 323 2.0 9.0 0.00 0.02 0.02 87 1029.8
20220706203809 62 334 3.0 12.0 0.00 0.02 0.02 87 1029.6
20220706202908 62 328 2.0 8.0 0.00 0.02 0.02 86 1029.6
20220706202008 62 324 1.0 7.0 0.00 0.02 0.02 86 1029.5
20220706201108 62 332 3.0 10.0 0.00 0.02 0.02 85 1029.5
20220706200209 63 319 2.0 9.0 0.00 0.02 0.02 85 1029.4
20220706195308 63 338 4.0 13.0 0.00 0.02 0.02 84 1029.3
20220706194409 64 343 5.0 15.0 0.00 0.02 0.02 83 1029.3
20220706193508 64 346 6.0 16.0 0.00 0.02 0.02 83 1029.2
20220706192608 65 345 8.0 15.0 0.00 0.02 0.02 81 1029.2
20220706191708 65 343 8.0 15.0 0.00 0.02 0.02 80 1029.2
20220706190808 66 345 4.0 15.0 0.00 0.02 0.02 80 1029.1
20220706185908 66 340 3.0 14.0 0.00 0.02 0.02 79 1029.1
20220706185008 67 341 4.0 13.0 0.00 0.02 0.02 78 1029.1
20220706184108 67 342 3.0 13.0 0.00 0.02 0.02 79 1029.1
20220706183208 67 308 2.0 13.0 0.00 0.02 0.02 79 1029.1
20220706182308 68 325 2.0 10.0 0.00 0.02 0.02 77 1029.1
20220706181408 68 336 2.0 12.0 0.00 0.02 0.02 76 1029.0
20220706180508 68 317 2.0 13.0 0.00 0.02 0.02 77 1028.9
20220706175608 68 332 4.0 12.0 0.00 0.02 0.02 76 1028.8
20220706174708 69 322 2.0 9.0 0.00 0.02 0.02 75 1029.0
20220706173808 70 320 3.0 11.0 0.00 0.02 0.02 74 1028.9
20220706172908 70 326 3.0 11.0 0.00 0.02 0.02 75 1028.9
20220706172008 69 329 2.0 7.0 0.00 0.02 0.02 76 1029.0
20220706171108 69 328 3.0 11.0 0.00 0.02 0.02 75 1029.1
20220706170208 69 326 2.0 8.0 0.00 0.02 0.02 74 1029.1
20220706165308 70 324 4.0 13.0 0.00 0.02 0.02 73 1029.2
20220706164408 71 321 3.0 15.0 0.00 0.02 0.02 71 1029.1
20220706163508 71 326 3.0 12.0 0.00 0.02 0.02 74 1029.0